Tracking 26218 objects as of 27-Sep-2022
HD Live streaming from Space Station
objects crossing your sky now

CENTISPACE-1 S4

Track CENTISPACE-1 S4 now!
10-day predictions


NORAD ID: 53758
Int'l Code: 2022-108B
Perigee: 701.3 km
Apogee: 714.0 km
Inclination: 53.5 °
Period: 98.8 minutes
Semi major axis: 7078 km
RCS: Unknown
Launch date: September 6, 2022
Source: People's Republic of China (PRC)
Launch site: Jiuquan Satellite Launch Center, China (JSC)
aabbcc
Your satellite tracking list
Your tracking list is empty




NASA's NSSDC Master Catalog

Two Line Element Set (TLE):
1 53758U 22108B   22270.47229323  .00000237  00000-0  91429-4 0  9997
2 53758  53.5294 258.7644 0008987 325.9326  34.1071 14.57721141  3110
Source of the keplerian elements: AFSPC